When you browse on this site, cookies collect data to enhance your experience and personalize the content and advertising you see.
Visit our Privacy Policy to learn more. By continuing to use the site, you agree to this use of cookies and data.
  • Em Portugal
  • Lista de países
  • Para 7 dias
  • Temperatura da água
  • Mapas de satélite
  • Mapa do tempo
  • Widgets de tempo
  • user-avatar
    Iniciar Sessão

    Previsão horária em Kotonu

    Hoje, 13 Dezembro, Quinta-feira

    Tempo Temperatura Precipitação Vento Pressão Humidade
    00:00 +29°C° 0 mm 3 m/s 760 mmHg 75%
    01:00 +29°C° 0 mm 2 m/s 759 mmHg 76%
    02:00 +28°C° 0 mm 2 m/s 759 mmHg 78%
    03:00 +28°C° 0 mm 1 m/s 759 mmHg 79%
    04:00 +28°C° 0 mm 1 m/s 759 mmHg 80%
    05:00 +27°C° 0 mm 1 m/s 759 mmHg 82%
    06:00 +25°C° 0 mm 0 m/s 759 mmHg 83%
    07:00 +28°C° 0 mm 0 m/s 760 mmHg 73%
    08:00 +30°C° 0 mm 0 m/s 760 mmHg 63%
    09:00 +33°C° 0 mm 0 m/s 760 mmHg 53%
    10:00 +34°C° 0 mm 0 m/s 760 mmHg 45%
    11:00 +37°C° 0 mm 1 m/s 760 mmHg 38%
    12:00 +40°C° 0 mm 1 m/s 759 mmHg 31%
    13:00 +39°C° 0 mm 2 m/s 759 mmHg 34%
    14:00 +38°C° 0 mm 3 m/s 758 mmHg 37%
    15:00 +38°C° 0 mm 4 m/s 757 mmHg 40%
    16:00 +36°C° 0 mm 4 m/s 757 mmHg 48%
    17:00 +34°C° 0 mm 4 m/s 758 mmHg 55%
    18:00 +32°C° 0 mm 4 m/s 758 mmHg 63%
    19:00 +32°C° 0 mm 4 m/s 758 mmHg 64%
    20:00 +30°C° 0 mm 3 m/s 759 mmHg 66%
    21:00 +30°C° 0 mm 3 m/s 759 mmHg 67%
    22:00 +30°C° 0 mm 3 m/s 759 mmHg 70%
    23:00 +29°C° 0 mm 3 m/s 759 mmHg 72%

    Amanhã, 14 Dezembro, Sexta-feira

    Tempo Temperatura Precipitação Vento Pressão Humidade
    00:00 +29°C° 0 mm 3 m/s 759 mmHg 74%
    01:00 +29°C° 0 mm 3 m/s 759 mmHg 76%
    02:00 +29°C° 0 mm 2 m/s 759 mmHg 77%
    03:00 +28°C° 0 mm 2 m/s 758 mmHg 79%
    04:00 +28°C° 0 mm 2 m/s 759 mmHg 80%
    05:00 +28°C° 0 mm 2 m/s 759 mmHg 82%
    06:00 +28°C° 0 mm 2 m/s 759 mmHg 83%
    07:00 +30°C° 0 mm 1 m/s 760 mmHg 73%
    08:00 +32°C° 0 mm 1 m/s 760 mmHg 63%
    09:00 +35°C° 0 mm 1 m/s 761 mmHg 53%
    10:00 +36°C° 0 mm 1 m/s 760 mmHg 48%
    11:00 +38°C° 0 mm 2 m/s 760 mmHg 43%
    12:00 +39°C° 0 mm 2 m/s 759 mmHg 38%
    13:00 +38°C° 0 mm 3 m/s 759 mmHg 41%
    14:00 +38°C° 0 mm 4 m/s 758 mmHg 45%
    15:00 +37°C° 0 mm 4 m/s 757 mmHg 48%
    16:00 +35°C° 0 mm 5 m/s 758 mmHg 55%
    17:00 +34°C° 0 mm 5 m/s 758 mmHg 61%
    18:00 +32°C° 0 mm 5 m/s 758 mmHg 68%
    19:00 +32°C° 0 mm 5 m/s 759 mmHg 70%
    20:00 +30°C° 0 mm 5 m/s 759 mmHg 73%
    21:00 +30°C° 0 mm 5 m/s 760 mmHg 75%
    22:00 +30°C° 0 mm 5 m/s 760 mmHg 76%
    23:00 +30°C° 0 mm 4 m/s 760 mmHg 78%

    Depois de amanhã, 15 Dezembro, Sábado

    Tempo Temperatura Precipitação Vento Pressão Humidade
    00:00 +29°C° 0 mm 4 m/s 759 mmHg 79%
    01:00 +29°C° 0 mm 4 m/s 759 mmHg 80%
    02:00 +29°C° 0 mm 3 m/s 759 mmHg 81%
    03:00 +28°C° 0 mm 3 m/s 758 mmHg 83%
    04:00 +28°C° 0 mm 2 m/s 759 mmHg 84%
    05:00 +28°C° 0 mm 2 m/s 759 mmHg 85%
    06:00 +28°C° 0 mm 2 m/s 759 mmHg 86%
    07:00 +29°C° 0 mm 2 m/s 760 mmHg 79%
    08:00 +31°C° 0 mm 2 m/s 761 mmHg 71%
    09:00 +32°C° 0 mm 1 m/s 761 mmHg 64%
    10:00 +35°C° 0 mm 2 m/s 761 mmHg 58%
    11:00 +36°C° 0 mm 2 m/s 760 mmHg 52%
    12:00 +38°C° 0 mm 2 m/s 760 mmHg 45%
    13:00 +38°C° 0 mm 3 m/s 759 mmHg 46%
    14:00 +37°C° 0 mm 3 m/s 758 mmHg 48%
    15:00 +37°C° 0 mm 4 m/s 757 mmHg 49%
    16:00 +35°C° 0 mm 4 m/s 758 mmHg 56%
    17:00 +34°C° 0 mm 5 m/s 758 mmHg 64%
    18:00 +32°C° 0 mm 5 m/s 758 mmHg 71%
    19:00 +32°C° 0 mm 5 m/s 759 mmHg 73%
    20:00 +30°C° 0 mm 5 m/s 759 mmHg 75%
    21:00 +30°C° 0 mm 4 m/s 760 mmHg 77%
    22:00 +30°C° 0 mm 4 m/s 760 mmHg 78%
    23:00 +30°C° 0 mm 4 m/s 759 mmHg 79%

    16 Dezembro, Domingo

    Tempo Temperatura Precipitação Vento Pressão Humidade
    00:00 +29°C° 0 mm 4 m/s 759 mmHg 80%
    01:00 +29°C° 0 mm 4 m/s 759 mmHg 81%
    02:00 +29°C° 0 mm 4 m/s 759 mmHg 82%
    03:00 +29°C° 0 mm 4 m/s 758 mmHg 82%
    04:00 +28°C° 0 mm 3 m/s 759 mmHg 83%
    05:00 +28°C° 0 mm 3 m/s 759 mmHg 84%
    06:00 +28°C° 0 mm 3 m/s 759 mmHg 85%
    07:00 +30°C° 0.1 mm 3 m/s 760 mmHg 77%
    08:00 +31°C° 0.1 mm 3 m/s 760 mmHg 70%
    09:00 +34°C° 0.1 mm 3 m/s 761 mmHg 62%
    10:00 +35°C° 0 mm 3 m/s 760 mmHg 58%
    11:00 +36°C° 0 mm 3 m/s 760 mmHg 54%
    12:00 +37°C° 0 mm 3 m/s 759 mmHg 50%
    13:00 +37°C° 0.2 mm 4 m/s 758 mmHg 51%
    14:00 +36°C° 0.2 mm 4 m/s 758 mmHg 52%
    15:00 +36°C° 0.2 mm 5 m/s 757 mmHg 53%
    16:00 +35°C° 0 mm 5 m/s 757 mmHg 60%
    17:00 +33°C° 0 mm 5 m/s 758 mmHg 66%
    18:00 +32°C° 0 mm 5 m/s 758 mmHg 73%
    19:00 +30°C° 0 mm 5 m/s 759 mmHg 75%
    20:00 +30°C° 0 mm 5 m/s 759 mmHg 77%
    21:00 +30°C° 0 mm 5 m/s 760 mmHg 79%
    22:00 +30°C° 0 mm 4 m/s 760 mmHg 80%
    23:00 +29°C° 0 mm 4 m/s 759 mmHg 81%

    17 Dezembro, Segunda-feira

    Tempo Temperatura Precipitação Vento Pressão Humidade
    00:00 +29°C° 0 mm 4 m/s 759 mmHg 82%
    01:00 +29°C° 0 mm 4 m/s 759 mmHg 83%
    02:00 +29°C° 0 mm 4 m/s 758 mmHg 83%
    03:00 +29°C° 0 mm 4 m/s 758 mmHg 84%
    04:00 +29°C° 0 mm 3 m/s 758 mmHg 85%
    05:00 +28°C° 0 mm 3 m/s 759 mmHg 85%
    06:00 +28°C° 0 mm 3 m/s 759 mmHg 85%
    07:00 +30°C° 0.1 mm 3 m/s 759 mmHg 79%
    08:00 +31°C° 0.1 mm 3 m/s 760 mmHg 72%
    09:00 +33°C° 0.1 mm 3 m/s 760 mmHg 66%
    10:00 +34°C° 0.8 mm 3 m/s 760 mmHg 62%
    11:00 +35°C° 0.8 mm 3 m/s 759 mmHg 59%
    12:00 +36°C° 0.8 mm 3 m/s 759 mmHg 55%
    13:00 +36°C° 0.2 mm 3 m/s 758 mmHg 54%
    14:00 +35°C° 0.2 mm 3 m/s 758 mmHg 54%
    15:00 +35°C° 0.2 mm 3 m/s 757 mmHg 53%
    16:00 +34°C° 0 mm 3 m/s 757 mmHg 59%
    17:00 +33°C° 0 mm 4 m/s 758 mmHg 64%
    18:00 +32°C° 0 mm 4 m/s 758 mmHg 70%
    19:00 +32°C° 0 mm 4 m/s 758 mmHg 72%
    20:00 +30°C° 0 mm 4 m/s 759 mmHg 74%
    21:00 +30°C° 0 mm 4 m/s 759 mmHg 77%
    22:00 +30°C° 0 mm 4 m/s 759 mmHg 78%
    23:00 +29°C° 0 mm 4 m/s 759 mmHg 79%

    18 Dezembro, Terça-feira

    Tempo Temperatura Precipitação Vento Pressão Humidade
    00:00 +29°C° 0 mm 4 m/s 759 mmHg 80%
    01:00 +29°C° 0.1 mm 3 m/s 758 mmHg 81%
    02:00 +29°C° 0.1 mm 3 m/s 758 mmHg 82%
    03:00 +28°C° 0.1 mm 3 m/s 757 mmHg 83%
    04:00 +28°C° 0.3 mm 2 m/s 758 mmHg 84%
    05:00 +28°C° 0.3 mm 2 m/s 758 mmHg 84%
    06:00 +28°C° 0.3 mm 2 m/s 758 mmHg 84%
    07:00 +30°C° 0.2 mm 2 m/s 759 mmHg 76%
    08:00 +31°C° 0.2 mm 2 m/s 759 mmHg 67%
    09:00 +34°C° 0.2 mm 2 m/s 760 mmHg 59%
    10:00 +35°C° 0.7 mm 2 m/s 759 mmHg 54%
    11:00 +36°C° 0.7 mm 2 m/s 759 mmHg 49%
    12:00 +37°C° 0.7 mm 2 m/s 758 mmHg 45%
    13:00 +37°C° 0 mm 3 m/s 758 mmHg 45%
    14:00 +37°C° 0 mm 3 m/s 757 mmHg 45%
    15:00 +37°C° 0 mm 4 m/s 756 mmHg 45%
    16:00 +35°C° 0 mm 4 m/s 757 mmHg 52%
    17:00 +34°C° 0 mm 4 m/s 757 mmHg 58%
    18:00 +32°C° 0 mm 4 m/s 757 mmHg 65%
    19:00 +32°C° 0 mm 4 m/s 758 mmHg 68%
    20:00 +30°C° 0 mm 4 m/s 758 mmHg 70%
    21:00 +30°C° 0 mm 4 m/s 759 mmHg 73%
    22:00 +30°C° 0 mm 4 m/s 758 mmHg 75%
    23:00 +30°C° 0 mm 4 m/s 758 mmHg 77%
    Mostrar mais